Miscellaneous Local Product
Issued by NWS North Platte, NE

Home | Current Version | Previous Version | Graphics & Text | Print | Product List | Glossary On
Versions: 1 2 3 4 5 6 7 8 9 10 11 12 13 14 15 16 17 18 19 20 21 22 23 24 25 26 27 28 29 30 31 32 33 34 35 36 37 38 39 40 41 42 43 44 45 46 47 48 49 50
000
AXUS43 KLBF 220810
MISLBF


WESTERN AND NORTH CENTRAL NEBRASKA HOURLY WEATHER ROUNDUP
NATIONAL WEATHER SERVICE NORTH PLATTE NE
200 AM CST SUN JAN 22 2017

NOTE: "FAIR" INDICATES FEW OR NO CLOUDS BELOW 12,000 FEET WITH NO
SIGNIFICANT WEATHER AND/OR OBSTRUCTIONS TO VISIBILITY.

NOTE: STATIONS NOT REPORTING VARIABLES SUCH AS SKY/WEATHER OR
PRESSURE ARE PROVIDED BY RAWS AND APRS NETWORKS AND ARE NOT UNDER
NATIONAL WEATHER SERVICE QUALITY CONTROL.

...OBSERVATIONS IN AND NEAR THE EASTERN PANHANDLE OF NEBRASKA...

CITY           SKY/WX    TMP DP  RH WIND       PRES   REMARKS
PINE RIDGE     CLEAR     15  14  95 CALM      29.70R
CHADRON        CLOUDY    20  18  92 SW5       29.71R WCI  13
ALLIANCE       PTCLDY    22  20  92 W5        29.68R WCI  16
SIDNEY         CLOUDY    32  25  75 NW14      29.69R WCI  22
CRESCENT LAKE    N/A     28  25  87 NW8         N/A  WCI  20
$$

...OBSERVATIONS IN NORTHERN NEBRASKA AND FAR SOUTHERN SOUTH DAKOTA...

CITY           SKY/WX    TMP DP  RH WIND       PRES   REMARKS
WINNER         FAIR      29  26  89 W9        29.67R WCI  20
VALENTINE      CLEAR     27  23  85 W10       29.67R WCI  17
THEDFORD       CLOUDY    26  25  95 W7        29.67R WCI  18
AINSWORTH      CLEAR     28  26  96 W6        29.65R WCI  21
O`NEILL        CLEAR     31  29  94 NW9       29.64R WCI  23
ORD            CLEAR     29  25  85 NW8       29.63R WCI  21
BROKEN BOW     CLEAR     32  29  88 N6        29.64R WCI  26
VALENTINE NWR    N/A     28  26  92 NW7         N/A  WCI  21
BUTTE            N/A     28  26  92 W8          N/A  WCI  20
HALSEY           N/A     29  27  93 W6          N/A  WCI  23
SARGENT          N/A     29  20  68 CALM        N/A
CHAMBERS         N/A     30  28  92 W3          N/A
EWING            N/A     28  26  94 W3          N/A
$$

...OBSERVATIONS IN SOUTHWEST NEBRASKA AND FAR NORTHEAST COLORADO...

CITY           SKY/WX    TMP DP  RH WIND       PRES   REMARKS
WRAY           CLOUDY    30  28  93 W5        29.67  WCI  25
HOLYOKE        FAIR      34  30  86 W7        29.68R WCI  28
IMPERIAL       CLEAR     30  25  81 NW7       29.67R WCI  23
OGALLALA       CLEAR     26  24  94 W3        29.68R
NORTH PLATTE   CLOUDY    25  23  92 NW3       29.67R
MCCOOK         CLOUDY    30  27  88 NW10      29.65R WCI  21
LEXINGTON      CLOUDY    31  28  91 W7        29.64S WCI  24
STAPLETON        N/A     28  26  92 CALM        N/A
GOTHENBURG       N/A     29  26  88 W5          N/A  WCI  24
CALLAWAY         N/A     30  28  92 NW10        N/A  WCI  21
$$

...OBSERVATIONS IN CENTRAL LINCOLN COUNTY AREA...

CITY           SKY/WX    TMP DP  RH WIND       PRES   REMARKS
N.P. AIRPORT   CLOUDY    25  23  92 NW3       29.67R
N.P. DOWNTOWN    N/A     28  26  91 CALM        N/A
N.P. SOUTHEAST   N/A     28  25  89 CALM        N/A
N.P. HILLCREST   N/A     31  29  90 N3          N/A
$$

...SOME OBSERVATIONS FROM AROUND THE REGION...

CITY           SKY/WX    TMP DP  RH WIND       PRES   REMARKS
LARAMIE        CLOUDY    17  14  88 NE5       29.72R WCI  10
CHEYENNE       CLOUDY    28  18  66 N7        29.70R WCI  21
DENVER         PTCLDY    31  25  78 W7        29.72R WCI  24
AKRON          CLOUDY    31  26  82 W10       29.69R WCI  22
SCOTTSBLUFF    MOCLDY    28  24  85 NW6       29.71R WCI  22
RAPID CITY     CLOUDY    26  21  81 W3        29.68R
BISMARCK       CLOUDY    22  20  92 W3        29.66R
PIERRE         CLOUDY    20  17  88 W7        29.66R WCI  11
SIOUX FALLS    CLOUDY    32  30  92 NW9       29.61R WCI  24
OMAHA          PTCLDY    31  27  85 N8        29.61R WCI  23
GRAND ISLAND   CLOUDY    33  30  88 NW10      29.62R WCI  25
KANSAS CITY    CLOUDY    46  41  82 NE10      29.53S
WICHITA        LGT RAIN  47  44  90 NE14      29.46R
OKLAHOMA CITY  MOCLDY    47  43  86 N9        29.34S
DALLAS         MOCLDY    58  39  49 W15       29.38S
AMARILLO       LGT RAIN  39  38  96 N25G37    29.55R WCI  28
DODGE CITY     CLOUDY    41  38  89 N16       29.56R
GOODLAND       CLEAR     28  25  88 NW9       29.65R WCI  19
$$




USA.gov is the U.S. government's official web portal to all federal, state and local government web resources and services.